State Line, IL

10:42 AM CDT on September 28, 2016 (GMT -0500)
Vermilion County

Weather History for KDNV - September, 2014

Change the Weather History Date:

Wednesday, September 10, 2014

  Actual Average (KLAF) Record (KLAF)
Temperature  
Mean Temperature 72 °F 69 °F  
Max Temperature 77 °F 80 °F 97 °F (1964)
Min Temperature 64 °F 57 °F 40 °F (1969)
Degree Days  
Heating Degree Days 0 1  
Month to date heating degree days 9  
Since 1 July heating degree days 15  
Cooling Degree Days 6 5  
Month to date cooling degree days 58  
Year to date cooling degree days 910  
Growing Degree Days 22 (Base 50)    
Moisture  
Dew Point 68 °F    
Average Humidity 92    
Maximum Humidity 100    
Minimum Humidity 80    
Precipitation  
Precipitation 1.10 in 0.09 in 0.97 in (2014)
Month to date precipitation 0.91  
Year to date precipitation 26.46  
Sea Level Pressure  
Sea Level Pressure 29.72 in    
Wind  
Wind Speed 11 mph (SSW)    
Max Wind Speed 24 mph    
Max Gust Speed 33 mph    
Visibility 7 miles    
Events Rain    
T = Trace of Precipitation, MM = Missing Value Source: NWS Daily Summary

Daily Weather History Graph

Daily Weather History Graph

Search for Another Location

Airport or City:

Trip Planner

Search our weather history database for the weather conditions in past years. The results will help you decide how hot, cold, wet, or windy it might be!

Date:

Astronomy

Sep. 10, 2014 Rise Set
Actual Time 6:26 AM CDT 7:07 PM CDT
Civil Twilight 5:59 AM CDT 7:34 PM CDT
Nautical Twilight 5:26 AM CDT 8:07 PM CDT
Astronomical Twilight 4:53 AM CDT 8:40 PM CDT
Moon 8:05 PM CDT (9/10) 8:13 AM CDT (9/10)
Length of Visible Light 13h 35m
Length of Day
12h 40m
Waning Gibbous, 96% of the Moon is Illuminated
Sep 10
Waning Gibbous
Sep 15
Last Quarter
Sep 24
New
Oct 1
First Quarter
Oct 8
Full

Hourly Weather History & Observations

Time (CDT) Temp. Dew Point Humidity Pressure Visibility Wind Dir Wind Speed Gust Speed Precip Events Conditions
12:15 AM 67.6 °F 62.8 °F 84% 29.87 in 10.0 mi SSE 5.8 mph - N/A   Clear
12:35 AM 67.6 °F 63.0 °F 85% 29.87 in 10.0 mi SSE 5.8 mph - N/A   Clear
12:55 AM 67.5 °F 62.8 °F 85% 29.86 in 10.0 mi SE 5.8 mph - N/A   Clear
1:15 AM 67.5 °F 62.8 °F 85% 29.86 in 10.0 mi SSE 5.8 mph - N/A Rain Light Rain
1:35 AM 67.3 °F 62.8 °F 85% 29.85 in 10.0 mi SSE 5.8 mph - N/A Rain Light Rain
1:55 AM 67.5 °F 62.6 °F 84% 29.81 in 10.0 mi SE 6.9 mph - N/A Rain Light Rain
2:15 AM 68.0 °F 62.6 °F 83% 29.82 in 10.0 mi SSE 6.9 mph - N/A   Scattered Clouds
2:35 AM 68.2 °F 62.6 °F 82% 29.82 in 10.0 mi SSE 6.9 mph - N/A   Mostly Cloudy
2:55 AM 68.4 °F 63.0 °F 83% 29.82 in 10.0 mi SSE 5.8 mph - N/A   Mostly Cloudy
3:15 AM 68.0 °F 63.0 °F 84% 29.80 in 10.0 mi SE 6.9 mph - N/A   Scattered Clouds
3:35 AM 68.2 °F 63.3 °F 84% 29.80 in 10.0 mi SSE 5.8 mph - N/A   Clear
3:55 AM 69.6 °F 63.1 °F 80% 29.79 in 10.0 mi SSE 11.5 mph 18.4 mph N/A   Mostly Cloudy
4:15 AM 69.3 °F 63.3 °F 81% 29.77 in 10.0 mi SSE 10.4 mph - N/A   Mostly Cloudy
4:35 AM 68.9 °F 63.3 °F 82% 29.76 in 10.0 mi SSE 9.2 mph - N/A   Mostly Cloudy
4:55 AM 69.1 °F 63.7 °F 83% 29.75 in 10.0 mi SSE 9.2 mph - N/A   Overcast
5:15 AM 69.1 °F 64.6 °F 86% 29.77 in 10.0 mi South 11.5 mph - N/A Rain Heavy Rain
5:35 AM 68.0 °F 65.5 °F 92% 29.74 in 7.0 mi South 10.4 mph - 0.13 in Rain Light Rain
5:55 AM 68.7 °F 65.8 °F 90% 29.73 in 7.0 mi South 12.7 mph 19.6 mph 0.13 in Rain Light Rain
6:15 AM 68.7 °F 66.6 °F 93% 29.73 in 7.0 mi South 13.8 mph 21.9 mph 0.01 in Rain Rain
6:35 AM 68.7 °F 66.7 °F 93% 29.73 in 7.0 mi South 11.5 mph - 0.02 in Rain Light Rain
6:55 AM 68.9 °F 67.1 °F 94% 29.72 in 7.0 mi South 12.7 mph 18.4 mph 0.02 in Rain Light Rain
7:15 AM 69.4 °F 67.3 °F 93% 29.72 in 7.0 mi South 13.8 mph 23.0 mph N/A Rain Light Rain
7:35 AM 69.3 °F 67.5 °F 94% 29.72 in 7.0 mi South 12.7 mph 20.7 mph N/A Rain Light Rain
7:55 AM 69.4 °F 67.6 °F 94% 29.72 in 7.0 mi South 12.7 mph 19.6 mph N/A Rain Light Rain
8:15 AM 69.4 °F 68.0 °F 95% 29.72 in 5.0 mi South 15.0 mph 20.7 mph 0.05 in Rain Heavy Rain
8:35 AM 70.0 °F 68.5 °F 95% 29.71 in 5.0 mi South 17.3 mph 26.5 mph 0.08 in Rain Rain
8:55 AM 70.9 °F 69.3 °F 95% 29.70 in 5.0 mi South 13.8 mph 31.1 mph 0.09 in Rain Light Rain
9:15 AM 71.8 °F 70.0 °F 94% 29.69 in 7.0 mi SSW 17.3 mph 26.5 mph N/A Rain Light Rain
9:35 AM 72.0 °F 70.2 °F 94% 29.69 in 3.0 mi SSW 18.4 mph 28.8 mph 0.06 in Rain Heavy Rain
9:55 AM 72.0 °F 70.5 °F 95% 29.69 in 5.0 mi SSW 20.7 mph 27.6 mph 0.06 in Rain Light Rain
10:35 AM 72.5 °F 71.1 °F 95% 29.68 in 3.0 mi SSW 16.1 mph 25.3 mph 0.07 in Rain Rain
10:55 AM 72.7 °F 71.6 °F 96% 29.68 in 4.0 mi SSW 15.0 mph 23.0 mph 0.10 in Rain Rain
11:15 AM 73.0 °F 71.8 °F 96% 29.67 in 3.0 mi SSW 15.0 mph 26.5 mph 0.07 in Rain Heavy Rain
11:35 AM 73.4 °F 72.1 °F 96% 29.67 in 3.0 mi SSW 17.3 mph 24.2 mph 0.27 in Rain Heavy Rain
11:55 AM 73.4 °F 72.1 °F 96% 29.67 in 3.0 mi SSW 18.4 mph 26.5 mph 0.34 in Rain Heavy Rain
12:15 PM 73.9 °F 72.5 °F 95% 29.67 in 4.0 mi SSW 20.7 mph 29.9 mph N/A Rain Light Rain
12:35 PM 74.7 °F 72.9 °F 94% 29.67 in 5.0 mi SSW 19.6 mph 32.2 mph N/A Rain Rain
12:55 PM 74.3 °F 71.6 °F 91% 29.67 in 5.0 mi SW 24.2 mph 33.4 mph N/A Rain Rain
1:15 PM 72.9 °F 71.4 °F 95% 29.67 in 5.0 mi SSW 16.1 mph 25.3 mph N/A Rain Rain
1:35 PM 73.6 °F 71.8 °F 94% 29.67 in 5.0 mi SSW 18.4 mph 26.5 mph 0.01 in Rain Light Rain
1:55 PM 74.3 °F 72.1 °F 93% 29.66 in 5.0 mi SW 16.1 mph 26.5 mph 0.01 in Rain Rain
2:15 PM 74.7 °F 72.7 °F 94% 29.65 in 5.0 mi SSW 20.7 mph 27.6 mph N/A Rain Light Rain
2:35 PM 74.8 °F 72.9 °F 94% 29.65 in 4.0 mi SSW 17.3 mph 25.3 mph N/A Rain Rain
2:55 PM 76.3 °F 73.8 °F 92% 29.65 in 4.0 mi SSW 18.4 mph 23.0 mph N/A Rain Heavy Rain
3:15 PM 76.1 °F 73.4 °F 91% 29.65 in 4.0 mi SW 15.0 mph 25.3 mph N/A Rain Rain
3:35 PM 75.7 °F 73.4 °F 92% 29.65 in 5.0 mi SSW 17.3 mph 23.0 mph N/A Rain Rain
3:55 PM 76.1 °F 73.6 °F 92% 29.65 in 5.0 mi SW 16.1 mph 23.0 mph N/A Rain Rain
4:15 PM 76.6 °F 73.4 °F 90% 29.64 in 5.0 mi SW 16.1 mph 26.5 mph N/A Rain Rain
4:35 PM 77.0 °F 73.4 °F 89% 29.64 in 7.0 mi SSW 18.4 mph 26.5 mph N/A Rain Heavy Rain
4:55 PM 77.0 °F 72.9 °F 87% 29.64 in 7.0 mi SSW 20.7 mph 28.8 mph N/A Rain Rain
5:15 PM 76.8 °F 72.7 °F 87% 29.63 in 7.0 mi SSW 17.3 mph 24.2 mph N/A Rain Rain
5:35 PM 75.6 °F 72.9 °F 91% 29.65 in 5.0 mi SW 12.7 mph - 0.05 in Rain Rain
5:55 PM 74.8 °F 72.9 °F 94% 29.65 in 4.0 mi SW 19.6 mph 27.6 mph 0.13 in Rain Heavy Rain
6:15 PM 73.8 °F 71.8 °F 93% 29.65 in 3.0 mi SW 15.0 mph 21.9 mph 0.15 in Rain Light Rain
6:35 PM 72.3 °F 70.5 °F 94% 29.68 in 10.0 mi WSW 11.5 mph 26.5 mph 0.15 in Rain Light Rain
6:55 PM 71.6 °F 70.2 °F 95% 29.68 in 7.0 mi WSW 8.1 mph - 0.15 in Rain Heavy Rain
7:15 PM 70.9 °F 70.0 °F 97% 29.68 in 7.0 mi SW 8.1 mph - 0.01 in Rain Rain
7:35 PM 70.7 °F 70.0 °F 98% 29.70 in 7.0 mi WSW 8.1 mph - 0.07 in Rain Rain
7:55 PM 70.5 °F 69.8 °F 98% 29.70 in 7.0 mi WSW 5.8 mph - 0.07 in Rain Rain
8:15 PM 70.2 °F 69.8 °F 99% 29.70 in 7.0 mi SW 4.6 mph - N/A Rain Rain
8:35 PM 70.0 °F 69.8 °F 99% 29.70 in 7.0 mi West 3.5 mph - N/A Rain Light Rain
8:55 PM 70.0 °F 69.8 °F 99% 29.72 in 7.0 mi West 4.6 mph - N/A Rain Rain
9:15 PM 69.8 °F 69.8 °F 100% 29.73 in 7.0 mi West 6.9 mph - N/A Rain Light Rain
9:35 PM 70.0 °F 69.6 °F 99% 29.74 in 10.0 mi West 3.5 mph - N/A   Scattered Clouds
9:55 PM 70.2 °F 69.1 °F 96% 29.75 in 10.0 mi West 8.1 mph - N/A   Overcast
10:15 PM 69.6 °F 67.1 °F 92% 29.75 in 10.0 mi NW 6.9 mph 17.3 mph N/A   Overcast
10:35 PM 68.7 °F 66.9 °F 94% 29.77 in 10.0 mi NW 8.1 mph - N/A   Overcast
10:55 PM 68.0 °F 66.2 °F 94% 29.80 in 10.0 mi NW 9.2 mph - N/A   Overcast
11:15 PM 66.4 °F 64.6 °F 94% 29.81 in 7.0 mi NNW 10.4 mph - N/A   Overcast
11:35 PM 66.0 °F 63.5 °F 92% 29.82 in 10.0 mi NNW 12.7 mph 18.4 mph N/A   Overcast
11:55 PM 64.6 °F 62.6 °F 93% 29.82 in 7.0 mi NNW 12.7 mph - N/A   Overcast